Time,TemperatureF,DewpointF,PressureIn,WindDirection,WindDirectionDegrees,WindSpeedMPH,WindSpeedGustMPH,Humidity,HourlyPrecipIn,Conditions,Clouds,dailyrainin,SoftwareType,DateUTC
2013-11-24 00:21:00,12.0,4.0,30.65,WNW,286,5.0,9.0,70,0.00,,,0.00,,2013-11-24 06:21:00,
2013-11-24 00:42:00,12.0,4.0,30.65,West,259,1.0,7.0,71,0.00,,,0.00,,2013-11-24 06:42:00,
2013-11-24 00:52:00,12.0,5.0,30.64,West,273,0.0,6.0,72,0.00,,,0.00,,2013-11-24 06:52:00,
2013-11-24 01:22:00,12.0,5.0,30.64,West,272,3.0,8.0,73,0.00,,,0.00,,2013-11-24 07:22:00,
2013-11-24 01:42:00,11.0,4.0,30.63,West,281,0.0,5.0,74,0.00,,,0.00,,2013-11-24 07:42:00,
2013-11-24 01:52:00,11.0,4.0,30.63,WNW,284,1.0,6.0,74,0.00,,,0.00,,2013-11-24 07:52:00,
2013-11-24 02:22:00,11.0,4.0,30.63,NW,321,0.0,5.0,74,0.00,,,0.00,,2013-11-24 08:22:00,
2013-11-24 02:42:00,12.0,5.0,30.62,WNW,299,0.0,2.0,74,0.00,,,0.00,,2013-11-24 08:42:00,
2013-11-24 02:53:00,12.0,5.0,30.63,West,275,0.0,10.0,74,0.00,,,0.00,,2013-11-24 08:53:00,
2013-11-24 03:21:00,11.0,4.0,30.62,NW,310,0.0,6.0,74,0.00,,,0.00,,2013-11-24 09:21:00,
2013-11-24 03:43:00,11.0,4.0,30.62,West,269,3.0,5.0,74,0.00,,,0.00,,2013-11-24 09:43:00,
2013-11-24 03:53:00,11.0,5.0,30.61,WNW,300,0.0,5.0,75,0.00,,,0.00,,2013-11-24 09:53:00,
2013-11-24 04:23:00,11.0,5.0,30.61,WSW,256,5.0,6.0,75,0.00,,,0.00,,2013-11-24 10:23:00,
2013-11-24 04:43:00,11.0,5.0,30.61,West,277,0.0,2.0,75,0.00,,,0.00,,2013-11-24 10:43:00,
2013-11-24 04:53:00,11.0,5.0,30.60,West,275,1.0,2.0,75,0.00,,,0.00,,2013-11-24 10:53:00,
2013-11-24 05:22:00,10.0,4.0,30.60,WNW,287,0.0,2.0,76,0.00,,,0.00,,2013-11-24 11:22:00,
2013-11-24 05:43:00,10.0,4.0,30.62,West,274,0.0,5.0,76,0.00,,,0.00,,2013-11-24 11:43:00,
2013-11-24 05:53:00,10.0,4.0,30.62,WSW,257,0.0,2.0,76,0.00,,,0.00,,2013-11-24 11:53:00,
2013-11-24 06:22:00,9.0,3.0,30.62,SW,236,0.0,4.0,77,0.00,,,0.00,,2013-11-24 12:22:00,
2013-11-24 06:42:00,9.0,3.0,30.62,WSW,250,2.0,6.0,77,0.00,,,0.00,,2013-11-24 12:42:00,
2013-11-24 06:53:00,10.0,4.0,30.62,West,263,1.0,6.0,77,0.00,,,0.00,,2013-11-24 12:53:00,
2013-11-24 07:22:00,10.0,4.0,30.62,West,273,0.0,5.0,77,0.00,,,0.00,,2013-11-24 13:22:00,
2013-11-24 07:42:00,10.0,4.0,30.63,NW,308,2.0,6.0,77,0.00,,,0.00,,2013-11-24 13:42:00,
2013-11-24 07:52:00,10.0,4.0,30.62,West,279,1.0,5.0,76,0.00,,,0.00,,2013-11-24 13:52:00,
2013-11-24 08:11:00,10.0,4.0,30.62,West,263,1.0,4.0,76,0.00,,,0.00,,2013-11-24 14:11:00,
2013-11-24 08:22:00,11.0,5.0,30.62,West,273,0.0,2.0,76,0.00,,,0.00,,2013-11-24 14:22:00,
2013-11-24 08:42:00,11.0,5.0,30.62,WSW,250,1.0,5.0,76,0.00,,,0.00,,2013-11-24 14:42:00,
2013-11-24 08:53:00,12.0,6.0,30.62,SSW,213,1.0,6.0,75,0.00,,,0.00,,2013-11-24 14:53:00,
2013-11-24 09:22:00,13.0,6.0,30.63,WSW,257,2.0,7.0,73,0.00,,,0.00,,2013-11-24 15:22:00,
2013-11-24 09:44:00,13.0,5.0,30.63,West,277,2.0,7.0,70,0.00,,,0.00,,2013-11-24 15:44:00,
2013-11-24 09:53:00,14.0,6.0,30.62,West,263,1.0,7.0,69,0.00,,,0.00,,2013-11-24 15:53:00,
2013-11-24 10:23:00,16.0,6.0,30.61,West,266,4.0,7.0,65,0.00,,,0.00,,2013-11-24 16:23:00,
2013-11-24 10:42:00,16.0,6.0,30.60,South,191,5.0,10.0,65,0.00,,,0.00,,2013-11-24 16:42:00,
2013-11-24 10:53:00,17.0,7.0,30.60,South,187,5.0,9.0,63,0.00,,,0.00,,2013-11-24 16:53:00,
2013-11-24 11:12:00,18.0,7.0,30.57,SSW,209,6.0,9.0,61,0.00,,,0.00,,2013-11-24 17:12:00,
2013-11-24 11:22:00,19.0,7.0,30.56,WSW,254,3.0,10.0,59,0.00,,,0.00,,2013-11-24 17:22:00,
2013-11-24 11:42:00,20.0,6.0,30.55,SW,222,5.0,13.0,55,0.00,,,0.00,,2013-11-24 17:42:00,
2013-11-24 11:52:00,20.0,7.0,30.54,South,184,5.0,11.0,56,0.00,,,0.00,,2013-11-24 17:52:00,
2013-11-24 12:21:00,21.0,6.0,30.52,South,170,4.0,15.0,52,0.00,,,0.00,,2013-11-24 18:21:00,
2013-11-24 12:53:00,23.0,7.0,30.49,SSW,206,7.0,9.0,49,0.00,,,0.00,,2013-11-24 18:53:00,
2013-11-24 13:21:00,23.0,6.0,30.46,South,172,5.0,16.0,47,0.00,,,0.00,,2013-11-24 19:21:00,
2013-11-24 13:42:00,24.0,7.0,30.46,WSW,244,3.0,12.0,47,0.00,,,0.00,,2013-11-24 19:42:00,
2013-11-24 13:52:00,25.0,7.0,30.45,South,170,6.0,11.0,45,0.00,,,0.00,,2013-11-24 19:52:00,
2013-11-24 14:22:00,25.0,6.0,30.44,WSW,237,7.0,13.0,43,0.00,,,0.00,,2013-11-24 20:22:00,
2013-11-24 14:42:00,25.0,6.0,30.43,South,179,5.0,16.0,44,0.00,,,0.00,,2013-11-24 20:42:00,
2013-11-24 14:52:00,25.0,6.0,30.42,SSW,206,5.0,13.0,43,0.00,,,0.00,,2013-11-24 20:52:00,
2013-11-24 15:11:00,25.0,6.0,30.41,South,173,7.0,15.0,43,0.00,,,0.00,,2013-11-24 21:11:00,
2013-11-24 15:22:00,25.0,6.0,30.41,SW,222,5.0,13.0,44,0.00,,,0.00,,2013-11-24 21:22:00,
2013-11-24 15:43:00,25.0,6.0,30.40,South,185,7.0,16.0,43,0.00,,,0.00,,2013-11-24 21:43:00,
2013-11-24 15:54:00,25.0,6.0,30.40,SSW,196,6.0,15.0,43,0.00,,,0.00,,2013-11-24 21:54:00,
2013-11-24 16:23:00,24.0,6.0,30.39,SSW,195,5.0,12.0,45,0.00,,,0.00,,2013-11-24 22:23:00,
2013-11-24 16:43:00,24.0,5.0,30.38,SSW,192,6.0,14.0,44,0.00,,,0.00,,2013-11-24 22:43:00,
2013-11-24 16:52:00,24.0,6.0,30.37,SSW,193,6.0,11.0,45,0.00,,,0.00,,2013-11-24 22:52:00,
2013-11-24 17:22:00,23.0,8.0,30.36,South,176,7.0,9.0,51,0.00,,,0.00,,2013-11-24 23:22:00,
2013-11-24 17:42:00,23.0,8.0,30.36,South,190,6.0,11.0,52,0.00,,,0.00,,2013-11-24 23:42:00,
2013-11-24 17:52:00,22.0,8.0,30.35,South,187,6.0,11.0,53,0.00,,,0.00,,2013-11-24 23:52:00,
2013-11-24 18:12:00,22.0,8.0,30.34,SSW,194,7.0,16.0,53,0.00,,,0.00,,2013-11-25 00:12:00,
2013-11-24 18:22:00,22.0,8.0,30.33,South,187,7.0,14.0,53,0.00,,,0.00,,2013-11-25 00:22:00,
2013-11-24 18:42:00,22.0,8.0,30.32,South,182,6.0,14.0,53,0.00,,,0.00,,2013-11-25 00:42:00,
2013-11-24 18:52:00,22.0,8.0,30.32,SSW,192,5.0,15.0,54,0.00,,,0.00,,2013-11-25 00:52:00,
2013-11-24 19:11:00,22.0,8.0,30.31,South,188,6.0,14.0,55,0.00,,,0.00,,2013-11-25 01:11:00,
2013-11-24 19:22:00,22.0,8.0,30.31,South,186,9.0,18.0,55,0.00,,,0.00,,2013-11-25 01:22:00,
2013-11-24 19:42:00,22.0,8.0,30.30,SSW,195,6.0,15.0,55,0.00,,,0.00,,2013-11-25 01:42:00,
2013-11-24 19:53:00,22.0,8.0,30.29,SSW,195,12.0,19.0,54,0.00,,,0.00,,2013-11-25 01:53:00,
2013-11-24 20:22:00,22.0,9.0,30.28,South,191,6.0,16.0,56,0.00,,,0.00,,2013-11-25 02:22:00,
2013-11-24 20:42:00,22.0,9.0,30.27,South,178,6.0,13.0,57,0.00,,,0.00,,2013-11-25 02:42:00,
2013-11-24 20:52:00,22.0,9.0,30.25,WSW,238,11.0,20.0,56,0.00,,,0.00,,2013-11-25 02:52:00,
2013-11-24 21:22:00,22.0,9.0,30.23,SW,215,9.0,21.0,57,0.00,,,0.00,,2013-11-25 03:22:00,
2013-11-24 21:43:00,22.0,10.0,30.22,South,182,9.0,20.0,58,0.00,,,0.00,,2013-11-25 03:43:00,
2013-11-24 21:53:00,22.0,10.0,30.22,South,175,9.0,21.0,59,0.00,,,0.00,,2013-11-25 03:53:00,
2013-11-24 22:13:00,22.0,10.0,30.22,South,173,7.0,22.0,59,0.00,,,0.00,,2013-11-25 04:13:00,
2013-11-24 22:23:00,22.0,10.0,30.22,South,173,7.0,22.0,59,0.00,,,0.00,,2013-11-25 04:23:00,
2013-11-24 22:53:00,22.0,9.0,30.22,WSW,238,6.0,19.0,57,0.00,,,0.00,,2013-11-25 04:53:00,
2013-11-24 23:22:00,22.0,9.0,30.22,SSW,197,8.0,15.0,57,0.00,,,0.00,,2013-11-25 05:22:00,
2013-11-24 23:43:00,22.0,9.0,30.22,SSW,197,11.0,19.0,57,0.00,,,0.00,,2013-11-25 05:43:00,
2013-11-24 23:53:00,22.0,10.0,30.21,SSW,194,5.0,15.0,58,0.00,,,0.00,,2013-11-25 05:53:00,